Time,TemperatureF,DewpointF,PressureIn,WindDirection,WindDirectionDegrees,WindSpeedMPH,WindSpeedGustMPH,Humidity,HourlyPrecipIn,Conditions,Clouds,dailyrainin,SoftwareType,DateUTC
2013-04-29 00:09:00,46.9,46.0,30.26,SE,146,0.0,0.0,96,0.00,,,0.00,weatherlink.com 1.10,2013-04-29 04:09:00,
2013-04-29 00:24:00,47.1,46.0,30.26,SSW,195,0.0,1.0,96,0.00,,,0.00,weatherlink.com 1.10,2013-04-29 04:24:00,
2013-04-29 00:39:00,47.1,46.0,30.27,SSW,196,0.0,0.0,96,0.00,,,0.00,weatherlink.com 1.10,2013-04-29 04:39:00,
2013-04-29 00:55:00,47.0,46.0,30.26,SSW,195,0.0,0.0,96,0.00,,,0.00,weatherlink.com 1.10,2013-04-29 04:55:00,
2013-04-29 01:10:00,47.0,46.0,30.26,SSW,196,0.0,0.0,96,0.00,,,0.00,weatherlink.com 1.10,2013-04-29 05:10:00,
2013-04-29 01:25:00,47.2,46.0,30.26,SSW,196,0.0,1.0,96,0.00,,,0.00,weatherlink.com 1.10,2013-04-29 05:25:00,
2013-04-29 01:40:00,47.2,46.0,30.25,SSW,195,0.0,1.0,96,0.00,,,0.00,weatherlink.com 1.10,2013-04-29 05:40:00,
2013-04-29 01:55:00,47.0,46.0,30.24,SSW,196,0.0,0.0,96,0.00,,,0.00,weatherlink.com 1.10,2013-04-29 05:55:00,
2013-04-29 02:10:00,47.0,46.0,30.24,SSW,195,0.0,0.0,96,0.00,,,0.00,weatherlink.com 1.10,2013-04-29 06:10:00,
2013-04-29 02:25:00,46.9,46.0,30.24,SSW,195,0.0,0.0,96,0.00,,,0.00,weatherlink.com 1.10,2013-04-29 06:25:00,
2013-04-29 02:40:00,46.4,45.0,30.23,SSW,195,0.0,0.0,96,0.00,,,0.00,weatherlink.com 1.10,2013-04-29 06:40:00,
2013-04-29 02:55:00,46.9,46.0,30.23,ESE,123,0.0,1.0,96,0.00,,,0.00,weatherlink.com 1.10,2013-04-29 06:55:00,
2013-04-29 03:10:00,47.0,46.0,30.23,ESE,122,0.0,1.0,96,0.00,,,0.00,weatherlink.com 1.10,2013-04-29 07:10:00,
2013-04-29 03:25:00,46.9,46.0,30.22,ESE,122,0.0,1.0,96,0.00,,,0.00,weatherlink.com 1.10,2013-04-29 07:25:00,
2013-04-29 03:40:00,46.9,46.0,30.22,ESE,122,0.0,1.0,96,0.00,,,0.00,weatherlink.com 1.10,2013-04-29 07:40:00,
2013-04-29 03:55:00,46.9,46.0,30.22,ESE,122,0.0,0.0,96,0.00,,,0.00,weatherlink.com 1.10,2013-04-29 07:55:00,
2013-04-29 04:10:00,46.6,46.0,30.22,ESE,122,0.0,0.0,96,0.00,,,0.00,weatherlink.com 1.10,2013-04-29 08:10:00,
2013-04-29 04:25:00,46.5,46.0,30.22,ESE,122,0.0,0.0,96,0.00,,,0.00,weatherlink.com 1.10,2013-04-29 08:25:00,
2013-04-29 04:40:00,46.5,46.0,30.22,ESE,122,0.0,0.0,96,0.00,,,0.00,weatherlink.com 1.10,2013-04-29 08:40:00,
2013-04-29 04:55:00,46.9,46.0,30.23,ESE,122,0.0,0.0,97,0.00,,,0.00,weatherlink.com 1.10,2013-04-29 08:55:00,
2013-04-29 05:10:00,47.3,47.0,30.23,ESE,122,0.0,0.0,97,0.00,,,0.00,weatherlink.com 1.10,2013-04-29 09:10:00,
2013-04-29 05:25:00,46.3,45.0,30.23,ESE,121,0.0,0.0,96,0.00,,,0.00,weatherlink.com 1.10,2013-04-29 09:25:00,
2013-04-29 05:40:00,-999.0,-99.9,30.24,North,-999,-999.0,-999.0,-999,0.00,,,0.00,weatherlink.com 1.10,2013-04-29 09:40:00,
2013-04-29 05:55:00,-999.0,-99.9,30.24,North,-999,-999.0,-999.0,-999,0.00,,,0.00,weatherlink.com 1.10,2013-04-29 09:55:00,
2013-04-29 06:10:00,-999.0,-99.9,30.24,North,-999,-999.0,-999.0,-999,0.00,,,0.00,weatherlink.com 1.10,2013-04-29 10:10:00,
2013-04-29 06:25:00,-999.0,-99.9,30.24,North,-999,-999.0,-999.0,-999,0.00,,,0.00,weatherlink.com 1.10,2013-04-29 10:25:00,
2013-04-29 06:40:00,-999.0,-99.9,30.25,North,-999,-999.0,-999.0,-999,0.00,,,0.00,weatherlink.com 1.10,2013-04-29 10:40:00,
2013-04-29 06:55:00,-999.0,-99.9,30.25,North,-999,-999.0,-999.0,-999,0.00,,,0.00,weatherlink.com 1.10,2013-04-29 10:55:00,
2013-04-29 07:10:00,47.9,47.0,30.26,ESE,103,0.0,1.0,97,0.00,,,0.00,weatherlink.com 1.10,2013-04-29 11:10:00,
2013-04-29 07:25:00,48.2,47.0,30.26,ESE,108,0.0,1.0,97,0.00,,,0.00,weatherlink.com 1.10,2013-04-29 11:25:00,
2013-04-29 07:40:00,48.5,48.0,30.27,ESE,109,0.0,0.0,97,0.00,,,0.00,weatherlink.com 1.10,2013-04-29 11:40:00,
2013-04-29 07:55:00,49.1,48.0,30.26,ESE,109,0.0,1.0,97,0.00,,,0.00,weatherlink.com 1.10,2013-04-29 11:55:00,
2013-04-29 08:11:00,50.2,49.0,30.26,ESE,120,0.0,1.0,97,0.00,,,0.00,weatherlink.com 1.10,2013-04-29 12:11:00,
2013-04-29 08:26:00,51.5,50.0,30.26,SE,142,0.0,1.0,96,0.00,,,0.00,weatherlink.com 1.10,2013-04-29 12:26:00,
2013-04-29 08:41:00,52.6,51.0,30.27,SSE,149,0.0,2.0,94,0.00,,,0.00,weatherlink.com 1.10,2013-04-29 12:41:00,
2013-04-29 08:56:00,53.3,51.0,30.27,SE,126,1.0,2.0,93,0.00,,,0.00,weatherlink.com 1.10,2013-04-29 12:56:00,
2013-04-29 09:11:00,54.2,51.0,30.27,ESE,121,1.0,3.0,90,0.00,,,0.00,weatherlink.com 1.10,2013-04-29 13:11:00,
2013-04-29 09:26:00,55.0,51.0,30.27,ESE,122,0.0,3.0,87,0.00,,,0.00,weatherlink.com 1.10,2013-04-29 13:26:00,
2013-04-29 09:41:00,55.1,50.0,30.27,SSE,155,1.0,2.0,84,0.00,,,0.00,weatherlink.com 1.10,2013-04-29 13:41:00,
2013-04-29 09:56:00,55.1,50.0,30.27,SE,143,1.0,3.0,82,0.00,,,0.00,weatherlink.com 1.10,2013-04-29 13:56:00,
2013-04-29 10:11:00,55.1,50.0,30.27,SE,143,2.0,3.0,82,0.00,,,0.00,weatherlink.com 1.10,2013-04-29 14:11:00,
2013-04-29 10:26:00,56.9,51.0,30.27,SE,132,1.0,3.0,80,0.00,,,0.00,weatherlink.com 1.10,2013-04-29 14:26:00,
2013-04-29 10:41:00,56.1,50.0,30.27,SE,143,2.0,4.0,79,0.00,,,0.00,weatherlink.com 1.10,2013-04-29 14:41:00,
2013-04-29 10:56:00,56.6,50.0,30.27,SSE,150,2.0,3.0,79,0.00,,,0.00,weatherlink.com 1.10,2013-04-29 14:56:00,
2013-04-29 11:11:00,56.7,50.0,30.27,SE,139,0.0,3.0,78,0.00,,,0.00,weatherlink.com 1.10,2013-04-29 15:11:00,
2013-04-29 11:26:00,57.3,51.0,30.27,SE,139,1.0,3.0,78,0.00,,,0.00,weatherlink.com 1.10,2013-04-29 15:26:00,
2013-04-29 11:42:00,57.9,50.0,30.26,SE,138,1.0,3.0,75,0.00,,,0.00,weatherlink.com 1.10,2013-04-29 15:42:00,
2013-04-29 11:56:00,56.8,49.0,30.26,SE,145,2.0,3.0,76,0.00,,,0.00,weatherlink.com 1.10,2013-04-29 15:56:00,
2013-04-29 12:11:00,57.5,50.0,30.26,ESE,108,1.0,3.0,77,0.00,,,0.00,weatherlink.com 1.10,2013-04-29 16:11:00,
2013-04-29 12:26:00,57.4,50.0,30.25,SE,142,2.0,4.0,76,0.00,,,0.00,weatherlink.com 1.10,2013-04-29 16:26:00,
2013-04-29 12:41:00,56.2,49.0,30.25,SSE,166,1.0,3.0,78,0.00,,,0.00,weatherlink.com 1.10,2013-04-29 16:41:00,
2013-04-29 12:56:00,55.8,50.0,30.25,SSE,162,0.0,3.0,80,0.00,,,0.00,weatherlink.com 1.10,2013-04-29 16:56:00,
2013-04-29 13:11:00,55.5,49.0,30.25,SSE,150,1.0,3.0,80,0.00,,,0.00,weatherlink.com 1.10,2013-04-29 17:11:00,
2013-04-29 13:26:00,55.7,50.0,30.25,SSE,152,1.0,2.0,81,0.00,,,0.00,weatherlink.com 1.10,2013-04-29 17:26:00,
2013-04-29 13:41:00,55.8,49.0,30.25,SE,131,1.0,3.0,79,0.00,,,0.00,weatherlink.com 1.10,2013-04-29 17:41:00,
2013-04-29 13:56:00,56.5,49.0,30.25,SSE,149,3.0,3.0,77,0.00,,,0.00,weatherlink.com 1.10,2013-04-29 17:56:00,
2013-04-29 14:11:00,56.7,49.0,30.25,SE,129,2.0,3.0,76,0.00,,,0.00,weatherlink.com 1.10,2013-04-29 18:11:00,
2013-04-29 14:26:00,56.7,49.0,30.25,SE,131,1.0,3.0,76,0.00,,,0.00,weatherlink.com 1.10,2013-04-29 18:26:00,
2013-04-29 14:41:00,56.5,49.0,30.25,SE,139,1.0,2.0,76,0.00,,,0.00,weatherlink.com 1.10,2013-04-29 18:41:00,
2013-04-29 14:56:00,56.4,50.0,30.24,SE,131,1.0,2.0,78,0.00,,,0.00,weatherlink.com 1.10,2013-04-29 18:56:00,
2013-04-29 15:11:00,55.9,49.0,30.24,SSE,150,0.0,3.0,78,0.00,,,0.00,weatherlink.com 1.10,2013-04-29 19:11:00,
2013-04-29 15:26:00,56.4,50.0,30.24,SSE,148,1.0,2.0,78,0.00,,,0.00,weatherlink.com 1.10,2013-04-29 19:26:00,
2013-04-29 15:41:00,56.5,49.0,30.23,SE,133,2.0,2.0,76,0.00,,,0.00,weatherlink.com 1.10,2013-04-29 19:41:00,
2013-04-29 15:56:00,56.0,48.0,30.23,SE,136,0.0,2.0,74,0.00,,,0.00,weatherlink.com 1.10,2013-04-29 19:56:00,
2013-04-29 16:11:00,55.2,47.0,30.23,SE,140,1.0,2.0,74,0.00,,,0.00,weatherlink.com 1.10,2013-04-29 20:11:00,
2013-04-29 16:26:00,54.8,47.0,30.23,SE,139,0.0,3.0,74,0.00,,,0.00,weatherlink.com 1.10,2013-04-29 20:26:00,
2013-04-29 16:41:00,54.5,46.0,30.23,SE,139,0.0,3.0,72,0.00,,,0.00,weatherlink.com 1.10,2013-04-29 20:41:00,
2013-04-29 16:56:00,54.3,45.0,30.23,SE,139,0.0,1.0,72,0.00,,,0.00,weatherlink.com 1.10,2013-04-29 20:56:00,
2013-04-29 17:11:00,53.8,45.0,30.23,SE,128,0.0,1.0,73,0.00,,,0.00,weatherlink.com 1.10,2013-04-29 21:11:00,
2013-04-29 17:26:00,53.5,45.0,30.23,SE,126,1.0,1.0,73,0.00,,,0.00,weatherlink.com 1.10,2013-04-29 21:26:00,
2013-04-29 17:41:00,53.2,45.0,30.23,SE,134,0.0,1.0,74,0.00,,,0.00,weatherlink.com 1.10,2013-04-29 21:41:00,
2013-04-29 17:56:00,52.9,44.0,30.23,SE,130,0.0,2.0,73,0.00,,,0.00,weatherlink.com 1.10,2013-04-29 21:56:00,
2013-04-29 18:11:00,52.5,44.0,30.23,SE,129,1.0,2.0,74,0.00,,,0.00,weatherlink.com 1.10,2013-04-29 22:11:00,
2013-04-29 18:26:00,52.0,44.0,30.23,ESE,122,1.0,2.0,75,0.00,,,0.00,weatherlink.com 1.10,2013-04-29 22:26:00,
2013-04-29 18:41:00,51.7,44.0,30.23,ESE,122,1.0,2.0,76,0.00,,,0.00,weatherlink.com 1.10,2013-04-29 22:41:00,
2013-04-29 18:56:00,51.3,44.0,30.23,ESE,114,1.0,2.0,77,0.00,,,0.00,weatherlink.com 1.10,2013-04-29 22:56:00,
2013-04-29 19:11:00,50.9,44.0,30.23,ESE,121,1.0,2.0,78,0.00,,,0.00,weatherlink.com 1.10,2013-04-29 23:11:00,
2013-04-29 19:26:00,50.4,44.0,30.23,SE,126,0.0,2.0,79,0.00,,,0.00,weatherlink.com 1.10,2013-04-29 23:26:00,
2013-04-29 19:41:00,50.0,44.0,30.23,SE,134,1.0,2.0,80,0.00,,,0.00,weatherlink.com 1.10,2013-04-29 23:41:00,
2013-04-29 19:56:00,49.8,44.0,30.23,SE,131,1.0,2.0,81,0.00,,,0.00,weatherlink.com 1.10,2013-04-29 23:56:00,
2013-04-29 20:11:00,49.7,44.0,30.24,SSE,149,1.0,2.0,80,0.00,,,0.00,weatherlink.com 1.10,2013-04-30 00:11:00,
2013-04-29 20:26:00,49.8,44.0,30.24,ESE,107,2.0,3.0,80,0.00,,,0.00,weatherlink.com 1.10,2013-04-30 00:26:00,
2013-04-29 20:41:00,49.9,44.0,30.24,ESE,109,2.0,2.0,81,0.00,,,0.00,weatherlink.com 1.10,2013-04-30 00:41:00,
2013-04-29 20:56:00,49.8,44.0,30.25,SE,143,1.0,2.0,81,0.00,,,0.00,weatherlink.com 1.10,2013-04-30 00:56:00,
2013-04-29 21:11:00,49.7,44.0,30.25,SE,124,1.0,1.0,82,0.00,,,0.00,weatherlink.com 1.10,2013-04-30 01:11:00,
2013-04-29 21:26:00,49.7,44.0,30.25,SE,141,0.0,2.0,81,0.00,,,0.00,weatherlink.com 1.10,2013-04-30 01:26:00,
2013-04-29 21:41:00,49.5,44.0,30.25,SE,129,1.0,2.0,81,0.00,,,0.00,weatherlink.com 1.10,2013-04-30 01:41:00,
2013-04-29 21:57:00,49.4,44.0,30.25,ESE,119,0.0,2.0,81,0.00,,,0.00,weatherlink.com 1.10,2013-04-30 01:57:00,
2013-04-29 22:12:00,49.3,44.0,30.25,ESE,122,2.0,2.0,82,0.00,,,0.00,weatherlink.com 1.10,2013-04-30 02:12:00,
2013-04-29 22:27:00,49.3,44.0,30.25,SE,129,1.0,2.0,83,0.00,,,0.00,weatherlink.com 1.10,2013-04-30 02:27:00,
2013-04-29 22:42:00,49.2,45.0,30.25,ESE,117,0.0,2.0,84,0.00,,,0.00,weatherlink.com 1.10,2013-04-30 02:42:00,
2013-04-29 22:57:00,49.2,45.0,30.25,ESE,112,2.0,2.0,84,0.00,,,0.00,weatherlink.com 1.10,2013-04-30 02:57:00,
2013-04-29 23:12:00,49.2,45.0,30.25,SE,127,0.0,2.0,84,0.00,,,0.00,weatherlink.com 1.10,2013-04-30 03:12:00,
2013-04-29 23:27:00,49.1,44.0,30.25,ESE,116,0.0,1.0,83,0.00,,,0.00,weatherlink.com 1.10,2013-04-30 03:27:00,
2013-04-29 23:42:00,49.1,44.0,30.25,ESE,117,0.0,1.0,83,0.00,,,0.00,weatherlink.com 1.10,2013-04-30 03:42:00,
2013-04-29 23:57:00,48.7,44.0,30.25,ESE,115,0.0,2.0,84,0.00,,,0.00,weatherlink.com 1.10,2013-04-30 03:57:00,